www.pogodaiklimat.ru

Погода и климат >> Архив погоды >> Россия >> Магаданская область >> Балыгычан


ПОГОДА в Балыгычане

  • Прогноз погоды в Балыгычане
  • Монитор погоды в Балыгычане

АРХИВ ПОГОДЫ в Балыгычане

Время (UTC), дата Ветер
(напр.,м/с)
 
Видим.   Явления Облачность Т
(С)
Тd
(С)
f
(%)
Тe
(С)
Тes
(С)
Комфортность P
(гПа)
Po
(гПа)
Тmin
(С)
Tmax
(С)
R
(мм)
R24
(мм)
S
(см)
15 11.04 ЮВ 2 50 км 10/0
[Ac trans Cs]
-11.2 -12.8 88 -16 -16 1009.7 990.7
18 11.04 штиль 0 50 км 8/3 1000 м
[Sc Ac trans]
-13.1 -14.0 93 -13 -13 1009.9 990.7
21 11.04 штиль 0 50 км 8/0
[Ac trans]
-9.3 -12.3 79 -10 -8 1009.1 990.2 -14.3 38
00 12.04 ЮВ 3 50 км 3/0
[Ac trans Ci fib]
-1.7 -9.1 57 -6 -2 1009.0 990.7
03 12.04 ЮВ 3 50 км 8/3 1000 м
[Cu med, cong Ci fib]
+0.6 -8.9 49 -3 -1 1008.9 990.7
06 12.04 ЮВ 3 50 км 10/0
[Ci fib]
+1.3 -8.5 48 -2 -2 1008.8 990.7
09 12.04 ЮВ 2 50 км 10/0
[Ci fib]
-1.6 -8.8 58 -5 -5 1009.0 990.7 +2.1
12 12.04 С 1 50 км 10/0
[Ci fib]
-6.6 -10.0 77 -9 -9 1010.7 992.0
15 12.04 В 1 50 км 10/0
[Ci fib]
-8.1 -10.2 85 -10 -10 1010.8 992.0
18 12.04 СВ 1 50 км 10/0
[Ci fib]
-15.1 -16.6 88 -18 -18 1012.7 993.3
21 12.04 С 1 50 км ясно -6.6 -11.0 71 -9 -6 1011.2 992.5 -15.4 37
00 13.04 Ю 4 50 км ясно -1.1 -9.9 51 -6 -2 1011.7 993.3
03 13.04 ЮВ 3 50 км ясно +1.5 -9.4 44 -2 +4 1011.5 993.3
06 13.04 Ю 1 50 км 4/0
[Ci fib]
+3.4 -11.0 34 +3 +5 1011.4 993.3
09 13.04 ЮВ 2 50 км 8/0
[Ac trans Ci fib]
-1.1 -10.4 49 -4 -4 1011.7 993.3 +3.4
12 13.04 ЮВ 4 50 км 10/0
[Cs]
-2.3 -10.1 55 -8 -8 1011.7 993.3
15 13.04 Ю 4 50 км 6/0
[Ac trans Ci fib]
-3.6 -10.9 57 -9 -9 1011.8 993.3
18 13.04 ЮЗ 1 50 км 3/0
[Ci fib]
-5.3 -11.6 61 -7 -7 1013.4 994.7
21 13.04 ЮВ 3 50 км 4/0
[Ci fib]
-3.1 -11.6 52 -8 -6 1012.1 993.6 -6.3 36
00 14.04 ЮВ 3 50 км 10/0
[Ci fib]
+1.0 -10.2 43 -3 -3 1014.3 996.0
03 14.04 ЮВ 3 50 км 10/0
[Ci fib]
+3.7 -9.3 38 +1 +1 1012.8 994.7
06 14.04 ЮВ 3 50 км 10/0
[Ci fib]
+4.8 -9.0 36 +2 +2 1012.7 994.7
09 14.04 штиль 0 50 км 10/0
[Ci fib]
+1.4 -8.4 48 +1 +1 1012.9 994.7 +5.0
12 14.04 В 1 50 км 10/0
[Ci fib]
-6.0 -9.9 74 -8 -8 1013.4 994.7
15 14.04 С 1 50 км 6/0
[Ac trans Cs]
-7.4 -10.2 80 -10 -10 1013.5 994.7 -10.9
18 14.04 СВ 1 50 км 8/0
[Ci fib]
-10.1 -11.8 87 -12 -12 1013.7 994.7
21 14.04 С 1 50 км 4/0
[Ac trans Ci fib]
-3.1 -10.1 58 -5 -3 1011.6 993.1 -10.9 36
00 15.04 ЮВ 5 50 км ясно +3.6 -8.7 40 -1 +3 1011.3 993.3
03 15.04 ЮВ 5 50 км ясно +5.7 -7.5 38 +2 +6 1009.9 992.0
06 15.04 ЮВ 5 50 км 3/0
[Cc]
+5.8 -7.4 38 +2 +3 1009.9 992.0
09 15.04 Ю 3
{10}
50 км 3/0
[Ci fib]
+2.9 -8.7 42 -0 -0 1011.4 993.3 +6.6
12 15.04 Ю 3 50 км 1/0
[Ac trans]
-1.5 -10.6 50 -6 -6 1014.4 996.0
15 15.04 ЮВ 2 50 км 4/0
[Ac trans Ci fib]
-4.9 -11.0 62 -9 -9 1014.7 996.0
18 15.04 ЮВ 4 50 км 6/0
[Ac trans Ci fib]
-4.9 -11.0 62 -11 -11 1014.7 996.0
21 15.04 ЮВ 5 50 км 8/0
[Ci fib]
-3.6 -10.8 57 -10 -9 1014.8 996.2 -5.3 35
00 16.04 ЮВ 5
{10}
50 км 10/0
[Ci fib]
-0.3 -10.0 48 -6 -6 1015.7 997.3
03 16.04 Ю 4 50 км 10/0
[Ci fib]
+2.3 -11.2 36 -2 -2 1015.5 997.3
06 16.04 Ю 4 50 км 10 баллов +2.5 -12.5 32 -1 -1 1015.5 997.3
09 16.04 Ю 2
{11}
50 км 10/1 1000 м
[Sc diur, vesp Ci fib]
+0.2 -11.8 40 -2 -2 1015.6 997.3 +3.1
12 16.04 Ю 2 50 км 10/0
[Ci fib]
-3.2 -12.6 48 -7 -7 1017.3 998.7
15 16.04 ЮВ 1 50 км 4/0
[Ci fib]
-6.2 -13.0 59 -8 -8 1017.6 998.8
18 16.04 ЮВ 2 н/о н/о -8.6 -12.9 71 -13 -13 1020.3 1001.3
21 16.04 С 1 н/о н/о -3.5 -12.2 51 -5 -5 1020.0 1001.3 -10.8
00 17.04 ЮВ 5 50 км 8/0
[Ci fib]
+1.5 -10.6 40 -3 -2 1019.6 1001.3
03 17.04 ЮВ 3
{10}
50 км 8/0
[Ac trans Ci fib]
+4.8 -10.9 31 +2 +4 1018.1 1000.0
06 17.04 Ю 3 50 км 10/0
[Ac trans Cs]
+6.3 -11.3 27 +4 +4 1018.0 1000.0
09 17.04 Ю 1 50 км 10/0
[Ac trans Cs]
+3.7 -11.1 33 +3 +3 1016.8 998.7 +6.6
12 17.04 ЮВ 4 50 км 10 баллов +2.1 -11.1 37 -2 -2 1016.9 998.7
15 17.04 В 2 50 км 10/0
[Ac trans Cs]
+0.4 -13.6 34 -2 -2 1015.6 997.3
18 17.04 В 2 50 км 10 баллов +0.4 -14.7 31 -2 -2 1015.6 997.3
21 17.04 ЮВ 2 50 км 10/0
[Ac und]
+0.9 -13.9 32 -2 -2 1014.3 996.0 -1.6 33
00 18.04 ЮВ 4
{11}
50 км 10/3 1000 м
[Sc Ac und]
+2.5 -9.7 40 -1 -1 1012.8 994.7
03 18.04 Ю 5-12
{13}
50 км 10/4 1000 м
[Sc Ac trans Ci fib]
+4.0 -5.5 50 -0 -0 1011.3 993.3
06 18.04 Ю 5-10
{12}
50 км 8/8 1000 м
[Cu med, cong]
+5.8 -7.8 37 +2 +3 1009.9 992.0
09 18.04 Ю 3
{10}
50 км 10/8 1000 м
[Sc diur, vesp Ci fib]
+4.0 -6.9 45 +1 +1 1011.3 993.3 +6.1
12 18.04 Ю 3 50 км 10 баллов +0.9 -6.9 56 -3 -3 1012.9 994.7

 

Местоположение метеостанции Балыгычан (Магаданская область, Россия): широта 63.91 долгота 154.10 высота над уровнем моря 146 м.

В архиве по умолчанию представлена погода в Балыгычане за последнюю неделю. Архивные данные за месяц целиком и за предыдущие месяцы, начиная с января 2011 года, Вы можете получить, выбрав интересующий диапазон дат из раскрывающегося списка и нажав кнопку "Ввод!".


*Определитесь, кто Вы:
робот инопланетянин человек

Внимание! Время в таблицах - всемирное. Для получения местного времени необходимо прибавить поправку, которая равна 11 ч.

Смотрите также архив погоды в соседних городах и на ближайших метеорологических станциях:

Погода в Коркодоне (Магаданская область, Россия) (94 км)
Погода в Сеймчане (Магаданская область, Россия) (140 км)
Погода в Омсукчане (Магаданская область, Россия) (177 км)
Погода в Среднекане (Магаданская область, Россия) (186 км)
Погода в Совхозе Эльген (Магаданская область, Россия) (214 км)
Погода в Лабазной (Магаданская область, Россия) (228 км)
Погода в Зырянке (Якутия, Россия) (253 км)
Погода в Усть-Бохапче (Магаданская область, Россия) (268 км)
Погода в Ягодной (Магаданская область, Россия) (274 км)
Погода на Озере Джека Лондона (Магаданская область, Россия) (309 км)

Пояснения к столбцам:

Ветер - указаны скорость ветра в м/с - средняя за 10 мин, порывы в срок и между сроками (в фигурных скобках) и направление, откуда дует ветер: С - северный, СВ - северо-восточный, В - восточный, ЮВ - юго-восточный, Ю - южный, ЮЗ - юго-западный, З - западный, СЗ - северо-западный.
Видимость - горизонтальная дальность видимости в метрах или километрах. При видимости от 1 до 10 км при отсутствии осадков обычно наблюдается дымка, при ухудшении видимости до 1 км и менее - туман. В сухую погоду видимость может ухудшаться дымом, пылью или мглою.
Явления - указаны атмосферные явления, наблюдавшиеся в срок или в последний час перед сроком; фигурными скобками обозначены явления, наблюдавшиеся между сроками (за 1-3 часа до срока); квадратными скобками обозначены град или гололедные отложения с указанием их диаметра в мм.
Облачность - указаны через наклонную черту общая и нижняя облачность в баллах и высота нижней границы облаков в метрах; квадратными скобками обозначены формы облаков: Ci - перистые, Cs - перисто-слоистые, Cc - перисто-кучевые, Ac - высококучевые, As - высокослоистые, Sc - слоисто-кучевые, Ns - слоисто-дождевые, Cu - кучевые, Cb - кучево-дождевые. Подробнее классификацию облаков см. в Атласе облаков (PDF).
T - Температура воздуха - температура, измеренная на высоте 2 м над землей.
Td - Температура точки росы - температура, при понижении до которой содержащийся в воздухе водяной пар достигнет насыщения.
f - Относительная влажность воздуха - влажноcть воздуха, измеренная на высоте 2 м над землей.
Te - Эффективная температура - температура, которую ощущает одетый по сезону человек в тени. Характеристика душности погоды. При расчете учитывается влияние влажности воздуха и скорости ветра на теплоощущения человека.
Tes - Эффективная температура на солнце - температура, которую ощущает человек, с поправкой на солнечный нагрев. Характеристика знойности погоды. Зависит от высоты солнца над горизонтом, облачности и скорости ветра. Ночью, в пасмурную погоду, а также при ветре 12 м/с и более поправка равна нулю.
P - Атмосферное давление - приведенное к уровню моря атмосферное давление.
Po - Атмосферное давление - измеренное на уровне метеостанции атмосферное давление.
Tmin - Минимальная температура - минимум температуры воздуха на высоте 2 м над землей.
Tmax - Максимальная температура - максимум температуры воздуха на высоте 2 м над землей.
R - Количество осадков - Количество выпавших осадков за период времени, мм. При наведении курсора мыши на число - период времени, за который выпало указанное количество осадков.
R24 - Количество осадков - Количество выпавших осадков за 24 часа, мм.
S - Снежный покров - Высота снежного покрова, см. При наведении курсора мыши на число - состояние снежного покрова и степень покрытия местности в баллах.